owner,sensor,date,latitude,longitude,vertical_datum,sea_water_temperature,qcFlag 
Scripps,ioos:station:wmo:42099:1,2017-07-01T00:00:00Z,27.3400,-84.2750,0.0,30.65,2 
Scripps,ioos:station:wmo:42099:1,2017-07-01T01:30:00Z,27.3400,-84.2750,0.0,30.6,2 
Scripps,ioos:station:wmo:42099:1,2017-07-01T02:30:00Z,27.3400,-84.2750,0.0,30.85,2 
Scripps,ioos:station:wmo:42099:1,2017-07-01T04:30:00Z,27.3400,-84.2750,0.0,30.75,2 
Scripps,ioos:station:wmo:42099:1,2017-07-01T05:00:00Z,27.3400,-84.2750,0.0,30.7,2 
Scripps,ioos:station:wmo:42099:1,2017-07-01T07:30:00Z,27.3400,-84.2750,0.0,30.4,2 
Scripps,ioos:station:wmo:42099:1,2017-07-01T09:00:00Z,27.3400,-84.2750,0.0,30.05,2 
Scripps,ioos:station:wmo:42099:1,2017-07-01T10:30:00Z,27.3400,-84.2750,0.0,30.1,2 
Scripps,ioos:station:wmo:42099:1,2017-07-01T12:30:00Z,27.3400,-84.2750,0.0,30.0,2 
Scripps,ioos:station:wmo:42099:1,2017-07-01T13:00:00Z,27.3400,-84.2750,0.0,29.9,2 
Scripps,ioos:station:wmo:42099:1,2017-07-01T15:00:00Z,27.3400,-84.2750,0.0,30.15,2 
Scripps,ioos:station:wmo:42099:1,2017-07-01T17:00:00Z,27.3400,-84.2750,0.0,30.55,2 
Scripps,ioos:station:wmo:42099:1,2017-07-01T18:30:00Z,27.3400,-84.2750,0.0,30.7,2 
Scripps,ioos:station:wmo:42099:1,2017-07-01T19:30:00Z,27.3400,-84.2750,0.0,30.3,2 
Scripps,ioos:station:wmo:42099:1,2017-07-01T21:30:00Z,27.3400,-84.2750,0.0,30.8,2 
Scripps,ioos:station:wmo:42099:1,2017-07-01T22:30:00Z,27.3400,-84.2750,0.0,30.4,2 
Scripps,ioos:station:wmo:42099:1,2017-07-01T23:00:00Z,27.3400,-84.2750,0.0,30.25,2 
Scripps,ioos:station:wmo:42099:1,2017-07-02T01:00:00Z,27.3400,-84.2750,0.0,30.0,2 
Scripps,ioos:station:wmo:42099:1,2017-07-02T02:00:00Z,27.3400,-84.2750,0.0,29.95,2 
Scripps,ioos:station:wmo:42099:1,2017-07-02T03:00:00Z,27.3400,-84.2750,0.0,29.9,2 
Scripps,ioos:station:wmo:42099:1,2017-07-02T04:30:00Z,27.3400,-84.2750,0.0,29.9,2 
Scripps,ioos:station:wmo:42099:1,2017-07-02T06:00:00Z,27.3400,-84.2750,0.0,30.2,2 
Scripps,ioos:station:wmo:42099:1,2017-07-02T07:00:00Z,27.3400,-84.2750,0.0,30.15,2 
Scripps,ioos:station:wmo:42099:1,2017-07-02T08:00:00Z,27.3400,-84.2750,0.0,30.05,2 
Scripps,ioos:station:wmo:42099:1,2017-07-02T09:30:00Z,27.3400,-84.2750,0.0,29.95,2 
Scripps,ioos:station:wmo:42099:1,2017-07-02T11:30:00Z,27.3400,-84.2750,0.0,29.85,2 
Scripps,ioos:station:wmo:42099:1,2017-07-02T13:30:00Z,27.3400,-84.2750,0.0,29.45,2 
Scripps,ioos:station:wmo:42099:1,2017-07-02T14:30:00Z,27.3400,-84.2750,0.0,29.85,2 
Scripps,ioos:station:wmo:42099:1,2017-07-02T16:30:00Z,27.3400,-84.2750,0.0,31.05,2 
Scripps,ioos:station:wmo:42099:1,2017-07-02T17:30:00Z,27.3400,-84.2750,0.0,31.55,2 
Scripps,ioos:station:wmo:42099:1,2017-07-02T18:00:00Z,27.3400,-84.2750,0.0,31.7,2 
Scripps,ioos:station:wmo:42099:1,2017-07-02T19:30:00Z,27.3400,-84.2750,0.0,30.95,2 
Scripps,ioos:station:wmo:42099:1,2017-07-02T20:30:00Z,27.3400,-84.2750,0.0,30.8,2 
Scripps,ioos:station:wmo:42099:1,2017-07-02T21:30:00Z,27.3400,-84.2750,0.0,31.55,2 
Scripps,ioos:station:wmo:42099:1,2017-07-02T22:30:00Z,27.3400,-84.2750,0.0,30.6,2 
Scripps,ioos:station:wmo:42099:1,2017-07-02T23:30:00Z,27.3400,-84.2750,0.0,31.35,2 
Scripps,ioos:station:wmo:42099:1,2017-07-03T00:30:00Z,27.3400,-84.2750,0.0,30.55,2 
Scripps,ioos:station:wmo:42099:1,2017-07-03T01:00:00Z,27.3400,-84.2750,0.0,30.5,2 
Scripps,ioos:station:wmo:42099:1,2017-07-03T03:30:00Z,27.3400,-84.2750,0.0,30.85,2 
Scripps,ioos:station:wmo:42099:1,2017-07-03T04:00:00Z,27.3400,-84.2750,0.0,30.85,2 
Scripps,ioos:station:wmo:42099:1,2017-07-03T05:30:00Z,27.3400,-84.2750,0.0,30.7,2 
Scripps,ioos:station:wmo:42099:1,2017-07-03T06:30:00Z,27.3400,-84.2750,0.0,30.6,2 
Scripps,ioos:station:wmo:42099:1,2017-07-03T07:30:00Z,27.3400,-84.2750,0.0,30.5,2 
Scripps,ioos:station:wmo:42099:1,2017-07-03T08:30:00Z,27.3400,-84.2750,0.0,30.45,2 
Scripps,ioos:station:wmo:42099:1,2017-07-03T09:00:00Z,27.3400,-84.2750,0.0,30.3,2 
Scripps,ioos:station:wmo:42099:1,2017-07-03T10:00:00Z,27.3400,-84.2750,0.0,30.25,2 
Scripps,ioos:station:wmo:42099:1,2017-07-03T11:30:00Z,27.3400,-84.2750,0.0,30.25,2 
Scripps,ioos:station:wmo:42099:1,2017-07-03T12:30:00Z,27.3400,-84.2750,0.0,30.15,2 
Scripps,ioos:station:wmo:42099:1,2017-07-03T13:30:00Z,27.3400,-84.2750,0.0,30.15,2 
Scripps,ioos:station:wmo:42099:1,2017-07-03T14:30:00Z,27.3400,-84.2750,0.0,30.0,2 
Scripps,ioos:station:wmo:42099:1,2017-07-03T15:30:00Z,27.3400,-84.2750,0.0,29.95,2 
Scripps,ioos:station:wmo:42099:1,2017-07-03T16:30:00Z,27.3400,-84.2750,0.0,30.25,2 
Scripps,ioos:station:wmo:42099:1,2017-07-03T17:00:00Z,27.3400,-84.2750,0.0,30.6,2 
Scripps,ioos:station:wmo:42099:1,2017-07-03T18:30:00Z,27.3400,-84.2750,0.0,30.5,2 
Scripps,ioos:station:wmo:42099:1,2017-07-03T19:30:00Z,27.3400,-84.2750,0.0,30.65,2 
Scripps,ioos:station:wmo:42099:1,2017-07-03T20:00:00Z,27.3400,-84.2750,0.0,30.75,2 
Scripps,ioos:station:wmo:42099:1,2017-07-03T21:30:00Z,27.3400,-84.2750,0.0,30.55,2 
Scripps,ioos:station:wmo:42099:1,2017-07-03T23:30:00Z,27.3400,-84.2750,0.0,30.55,2 
Scripps,ioos:station:wmo:42099:1,2017-07-04T00:30:00Z,27.3400,-84.2750,0.0,30.65,2 
Scripps,ioos:station:wmo:42099:1,2017-07-04T01:30:00Z,27.3400,-84.2750,0.0,30.6,2 
Scripps,ioos:station:wmo:42099:1,2017-07-04T02:00:00Z,27.3400,-84.2750,0.0,30.5,2 
Scripps,ioos:station:wmo:42099:1,2017-07-04T05:00:00Z,27.3400,-84.2750,0.0,30.35,2 
Scripps,ioos:station:wmo:42099:1,2017-07-04T06:00:00Z,27.3400,-84.2750,0.0,30.3,2 
Scripps,ioos:station:wmo:42099:1,2017-07-04T08:00:00Z,27.3400,-84.2750,0.0,30.1,2 
Scripps,ioos:station:wmo:42099:1,2017-07-04T09:00:00Z,27.3400,-84.2750,0.0,30.0,2 
Scripps,ioos:station:wmo:42099:1,2017-07-04T10:00:00Z,27.3400,-84.2750,0.0,29.85,2 
Scripps,ioos:station:wmo:42099:1,2017-07-04T11:00:00Z,27.3400,-84.2750,0.0,29.7,2 
Scripps,ioos:station:wmo:42099:1,2017-07-04T12:00:00Z,27.3400,-84.2750,0.0,29.8,2 
Scripps,ioos:station:wmo:42099:1,2017-07-04T14:00:00Z,27.3400,-84.2750,0.0,30.3,2 
Scripps,ioos:station:wmo:42099:1,2017-07-04T15:00:00Z,27.3400,-84.2750,0.0,30.45,2 
Scripps,ioos:station:wmo:42099:1,2017-07-04T16:30:00Z,27.3400,-84.2750,0.0,30.5,2 
Scripps,ioos:station:wmo:42099:1,2017-07-04T17:30:00Z,27.3400,-84.2750,0.0,30.55,2 
Scripps,ioos:station:wmo:42099:1,2017-07-04T18:30:00Z,27.3400,-84.2750,0.0,30.8,2 
Scripps,ioos:station:wmo:42099:1,2017-07-04T19:30:00Z,27.3400,-84.2750,0.0,30.95,2 
Scripps,ioos:station:wmo:42099:1,2017-07-04T20:30:00Z,27.3400,-84.2750,0.0,30.9,2 
Scripps,ioos:station:wmo:42099:1,2017-07-04T21:30:00Z,27.3400,-84.2750,0.0,30.45,2 
Scripps,ioos:station:wmo:42099:1,2017-07-04T22:00:00Z,27.3400,-84.2750,0.0,30.4,2 
Scripps,ioos:station:wmo:42099:1,2017-07-05T00:30:00Z,27.3400,-84.2750,0.0,30.45,2 
Scripps,ioos:station:wmo:42099:1,2017-07-05T03:00:00Z,27.3400,-84.2750,0.0,30.35,2 
Scripps,ioos:station:wmo:42099:1,2017-07-05T04:30:00Z,27.3400,-84.2750,0.0,30.35,2 
Scripps,ioos:station:wmo:42099:1,2017-07-05T05:00:00Z,27.3400,-84.2750,0.0,30.4,2 
Scripps,ioos:station:wmo:42099:1,2017-07-05T06:00:00Z,27.3400,-84.2750,0.0,30.35,2 
Scripps,ioos:station:wmo:42099:1,2017-07-05T07:30:00Z,27.3400,-84.2750,0.0,30.3,2 
Scripps,ioos:station:wmo:42099:1,2017-07-05T08:30:00Z,27.3400,-84.2750,0.0,30.35,2 
Scripps,ioos:station:wmo:42099:1,2017-07-05T10:30:00Z,27.3400,-84.2750,0.0,30.35,2 
Scripps,ioos:station:wmo:42099:1,2017-07-05T11:30:00Z,27.3400,-84.2750,0.0,30.3,2 
Scripps,ioos:station:wmo:42099:1,2017-07-05T12:30:00Z,27.3400,-84.2750,0.0,30.2,2 
Scripps,ioos:station:wmo:42099:1,2017-07-05T13:30:00Z,27.3400,-84.2750,0.0,30.2,2 
Scripps,ioos:station:wmo:42099:1,2017-07-05T14:30:00Z,27.3400,-84.2750,0.0,30.1,2 
Scripps,ioos:station:wmo:42099:1,2017-07-05T15:30:00Z,27.3400,-84.2750,0.0,30.2,2 
Scripps,ioos:station:wmo:42099:1,2017-07-05T16:00:00Z,27.3400,-84.2750,0.0,30.35,2 
Scripps,ioos:station:wmo:42099:1,2017-07-05T17:30:00Z,27.3400,-84.2750,0.0,30.6,2 
Scripps,ioos:station:wmo:42099:1,2017-07-05T18:30:00Z,27.3400,-84.2750,0.0,30.55,2 
Scripps,ioos:station:wmo:42099:1,2017-07-05T19:00:00Z,27.3400,-84.2750,0.0,30.7,2 
Scripps,ioos:station:wmo:42099:1,2017-07-05T20:00:00Z,27.3400,-84.2750,0.0,31.05,2 
Scripps,ioos:station:wmo:42099:1,2017-07-05T21:30:00Z,27.3400,-84.2750,0.0,31.15,2 
Scripps,ioos:station:wmo:42099:1,2017-07-05T23:30:00Z,27.3400,-84.2750,0.0,30.8,2 
Scripps,ioos:station:wmo:42099:1,2017-07-06T00:30:00Z,27.3400,-84.2750,0.0,30.8,2 
Scripps,ioos:station:wmo:42099:1,2017-07-06T02:00:00Z,27.3400,-84.2750,0.0,30.7,2 
Scripps,ioos:station:wmo:42099:1,2017-07-06T03:00:00Z,27.3400,-84.2750,0.0,30.65,2 
Scripps,ioos:station:wmo:42099:1,2017-07-06T05:30:00Z,27.3400,-84.2750,0.0,30.65,2 
Scripps,ioos:station:wmo:42099:1,2017-07-06T06:30:00Z,27.3400,-84.2750,0.0,30.65,2 
Scripps,ioos:station:wmo:42099:1,2017-07-06T07:30:00Z,27.3400,-84.2750,0.0,30.65,2 
Scripps,ioos:station:wmo:42099:1,2017-07-06T08:30:00Z,27.3400,-84.2750,0.0,30.65,2 
Scripps,ioos:station:wmo:42099:1,2017-07-06T09:30:00Z,27.3400,-84.2750,0.0,30.55,2 
Scripps,ioos:station:wmo:42099:1,2017-07-06T10:00:00Z,27.3400,-84.2750,0.0,30.45,2 
Scripps,ioos:station:wmo:42099:1,2017-07-06T11:00:00Z,27.3400,-84.2750,0.0,30.45,2 
Scripps,ioos:station:wmo:42099:1,2017-07-06T12:00:00Z,27.3400,-84.2750,0.0,30.45,2 
Scripps,ioos:station:wmo:42099:1,2017-07-06T13:00:00Z,27.3400,-84.2750,0.0,30.5,2 
Scripps,ioos:station:wmo:42099:1,2017-07-06T14:30:00Z,27.3400,-84.2750,0.0,30.35,2 
Scripps,ioos:station:wmo:42099:1,2017-07-06T15:00:00Z,27.3400,-84.2750,0.0,30.55,2 
Scripps,ioos:station:wmo:42099:1,2017-07-06T16:30:00Z,27.3400,-84.2750,0.0,31.05,2 
Scripps,ioos:station:wmo:42099:1,2017-07-06T17:30:00Z,27.3400,-84.2750,0.0,31.35,2 
Scripps,ioos:station:wmo:42099:1,2017-07-06T19:00:00Z,27.3400,-84.2750,0.0,31.8,2 
Scripps,ioos:station:wmo:42099:1,2017-07-06T21:00:00Z,27.3400,-84.2750,0.0,31.8,2 
Scripps,ioos:station:wmo:42099:1,2017-07-06T22:30:00Z,27.3400,-84.2750,0.0,31.7,2 
Scripps,ioos:station:wmo:42099:1,2017-07-07T00:30:00Z,27.3400,-84.2750,0.0,31.3,2 
Scripps,ioos:station:wmo:42099:1,2017-07-07T01:00:00Z,27.3400,-84.2750,0.0,31.3,2 
Scripps,ioos:station:wmo:42099:1,2017-07-07T02:00:00Z,27.3400,-84.2750,0.0,31.1,2 
Scripps,ioos:station:wmo:42099:1,2017-07-07T04:00:00Z,27.3400,-84.2750,0.0,30.9,2 
Scripps,ioos:station:wmo:42099:1,2017-07-07T05:30:00Z,27.3400,-84.2750,0.0,30.9,2 
Scripps,ioos:station:wmo:42099:1,2017-07-07T06:30:00Z,27.3400,-84.2750,0.0,30.75,2 
Scripps,ioos:station:wmo:42099:1,2017-07-07T11:00:00Z,27.3400,-84.2750,0.0,30.6,2 
Scripps,ioos:station:wmo:42099:1,2017-07-07T13:30:00Z,27.3400,-84.2750,0.0,30.55,2 
Scripps,ioos:station:wmo:42099:1,2017-07-07T14:30:00Z,27.3400,-84.2750,0.0,30.65,2 
Scripps,ioos:station:wmo:42099:1,2017-07-07T15:00:00Z,27.3400,-84.2750,0.0,30.8,2 
Scripps,ioos:station:wmo:42099:1,2017-07-07T17:30:00Z,27.3400,-84.2750,0.0,31.6,2 
Scripps,ioos:station:wmo:42099:1,2017-07-07T18:00:00Z,27.3400,-84.2750,0.0,30.9,2 
Scripps,ioos:station:wmo:42099:1,2017-07-07T20:00:00Z,27.3400,-84.2750,0.0,31.55,2 
Scripps,ioos:station:wmo:42099:1,2017-07-07T21:30:00Z,27.3400,-84.2750,0.0,31.2,2 
Scripps,ioos:station:wmo:42099:1,2017-07-07T22:30:00Z,27.3400,-84.2750,0.0,31.9,2 
Scripps,ioos:station:wmo:42099:1,2017-07-08T00:30:00Z,27.3400,-84.2750,0.0,31.5,2 
Scripps,ioos:station:wmo:42099:1,2017-07-08T01:30:00Z,27.3400,-84.2750,0.0,31.35,2 
Scripps,ioos:station:wmo:42099:1,2017-07-08T03:00:00Z,27.3400,-84.2750,0.0,30.9,2 
Scripps,ioos:station:wmo:42099:1,2017-07-08T07:00:00Z,27.3400,-84.2750,0.0,30.65,2 
Scripps,ioos:station:wmo:42099:1,2017-07-08T08:00:00Z,27.3400,-84.2750,0.0,30.7,2 
Scripps,ioos:station:wmo:42099:1,2017-07-08T09:00:00Z,27.3400,-84.2750,0.0,30.65,2 
Scripps,ioos:station:wmo:42099:1,2017-07-08T12:30:00Z,27.3400,-84.2750,0.0,30.55,2 
Scripps,ioos:station:wmo:42099:1,2017-07-08T15:00:00Z,27.3400,-84.2750,0.0,31.1,2 
Scripps,ioos:station:wmo:42099:1,2017-07-08T17:00:00Z,27.3400,-84.2750,0.0,31.25,2 
Scripps,ioos:station:wmo:42099:1,2017-07-08T19:30:00Z,27.3400,-84.2750,0.0,30.8,2 
Scripps,ioos:station:wmo:42099:1,2017-07-08T20:30:00Z,27.3400,-84.2750,0.0,30.8,2 
Scripps,ioos:station:wmo:42099:1,2017-07-08T21:00:00Z,27.3400,-84.2750,0.0,30.9,2 
Scripps,ioos:station:wmo:42099:1,2017-07-08T22:00:00Z,27.3400,-84.2750,0.0,30.9,2 
Scripps,ioos:station:wmo:42099:1,2017-07-08T23:30:00Z,27.3400,-84.2750,0.0,30.8,2 
Scripps,ioos:station:wmo:42099:1,2017-07-09T00:30:00Z,27.3400,-84.2750,0.0,30.8,2 
Scripps,ioos:station:wmo:42099:1,2017-07-09T01:30:00Z,27.3400,-84.2750,0.0,30.8,2 
Scripps,ioos:station:wmo:42099:1,2017-07-09T02:30:00Z,27.3400,-84.2750,0.0,30.8,2 
Scripps,ioos:station:wmo:42099:1,2017-07-09T03:00:00Z,27.3400,-84.2750,0.0,30.75,2 
Scripps,ioos:station:wmo:42099:1,2017-07-09T05:00:00Z,27.3400,-84.2750,0.0,30.75,2 
Scripps,ioos:station:wmo:42099:1,2017-07-09T12:30:00Z,27.3400,-84.2750,0.0,30.3,2 
Scripps,ioos:station:wmo:42099:1,2017-07-09T13:30:00Z,27.3400,-84.2750,0.0,30.35,2 
Scripps,ioos:station:wmo:42099:1,2017-07-09T14:30:00Z,27.3400,-84.2750,0.0,30.4,2 
Scripps,ioos:station:wmo:42099:1,2017-07-09T15:30:00Z,27.3400,-84.2750,0.0,30.75,2 
Scripps,ioos:station:wmo:42099:1,2017-07-09T16:30:00Z,27.3400,-84.2750,0.0,31.1,2 
Scripps,ioos:station:wmo:42099:1,2017-07-09T17:30:00Z,27.3400,-84.2750,0.0,31.4,2 
Scripps,ioos:station:wmo:42099:1,2017-07-09T18:30:00Z,27.3400,-84.2750,0.0,31.5,2 
Scripps,ioos:station:wmo:42099:1,2017-07-09T19:30:00Z,27.3400,-84.2750,0.0,31.5,2 
Scripps,ioos:station:wmo:42099:1,2017-07-09T20:30:00Z,27.3400,-84.2750,0.0,31.75,2 
Scripps,ioos:station:wmo:42099:1,2017-07-09T21:30:00Z,27.3400,-84.2750,0.0,31.7,2 
Scripps,ioos:station:wmo:42099:1,2017-07-09T22:00:00Z,27.3400,-84.2750,0.0,31.55,2 
Scripps,ioos:station:wmo:42099:1,2017-07-09T23:30:00Z,27.3400,-84.2750,0.0,31.2,2 
Scripps,ioos:station:wmo:42099:1,2017-07-10T00:30:00Z,27.3400,-84.2750,0.0,30.9,2 
Scripps,ioos:station:wmo:42099:1,2017-07-10T01:30:00Z,27.3400,-84.2750,0.0,30.8,2 
Scripps,ioos:station:wmo:42099:1,2017-07-10T02:30:00Z,27.3400,-84.2750,0.0,30.65,2 
Scripps,ioos:station:wmo:42099:1,2017-07-10T03:30:00Z,27.3400,-84.2750,0.0,30.65,2 
Scripps,ioos:station:wmo:42099:1,2017-07-10T04:30:00Z,27.3400,-84.2750,0.0,30.65,2 
Scripps,ioos:station:wmo:42099:1,2017-07-10T05:30:00Z,27.3400,-84.2750,0.0,30.65,2 
Scripps,ioos:station:wmo:42099:1,2017-07-10T06:30:00Z,27.3400,-84.2750,0.0,30.6,2 
Scripps,ioos:station:wmo:42099:1,2017-07-10T07:30:00Z,27.3400,-84.2750,0.0,30.55,2 
Scripps,ioos:station:wmo:42099:1,2017-07-10T08:30:00Z,27.3400,-84.2750,0.0,30.55,2 
Scripps,ioos:station:wmo:42099:1,2017-07-10T09:30:00Z,27.3400,-84.2750,0.0,30.45,2 
Scripps,ioos:station:wmo:42099:1,2017-07-10T10:00:00Z,27.3400,-84.2750,0.0,30.45,2 
Scripps,ioos:station:wmo:42099:1,2017-07-10T12:00:00Z,27.3400,-84.2750,0.0,30.25,2 
Scripps,ioos:station:wmo:42099:1,2017-07-10T13:30:00Z,27.3400,-84.2750,0.0,30.3,2 
Scripps,ioos:station:wmo:42099:1,2017-07-10T14:30:00Z,27.3400,-84.2750,0.0,30.35,2 
Scripps,ioos:station:wmo:42099:1,2017-07-10T15:30:00Z,27.3400,-84.2750,0.0,30.45,2 
Scripps,ioos:station:wmo:42099:1,2017-07-10T16:30:00Z,27.3400,-84.2750,0.0,30.55,2 
Scripps,ioos:station:wmo:42099:1,2017-07-10T17:30:00Z,27.3400,-84.2750,0.0,30.6,2 
Scripps,ioos:station:wmo:42099:1,2017-07-10T18:30:00Z,27.3400,-84.2750,0.0,30.6,2 
Scripps,ioos:station:wmo:42099:1,2017-07-10T19:30:00Z,27.3400,-84.2750,0.0,30.7,2 
Scripps,ioos:station:wmo:42099:1,2017-07-10T20:30:00Z,27.3400,-84.2750,0.0,30.85,2 
Scripps,ioos:station:wmo:42099:1,2017-07-10T21:30:00Z,27.3400,-84.2750,0.0,31.0,2 
Scripps,ioos:station:wmo:42099:1,2017-07-11T00:30:00Z,27.3400,-84.2750,0.0,30.95,2 
Scripps,ioos:station:wmo:42099:1,2017-07-11T01:30:00Z,27.3400,-84.2750,0.0,30.75,2 
Scripps,ioos:station:wmo:42099:1,2017-07-11T03:00:00Z,27.3400,-84.2750,0.0,30.65,2 
Scripps,ioos:station:wmo:42099:1,2017-07-11T06:30:00Z,27.3400,-84.2750,0.0,30.7,2 
Scripps,ioos:station:wmo:42099:1,2017-07-11T07:30:00Z,27.3400,-84.2750,0.0,30.8,2 
Scripps,ioos:station:wmo:42099:1,2017-07-11T08:30:00Z,27.3400,-84.2750,0.0,30.6,2 
Scripps,ioos:station:wmo:42099:1,2017-07-11T09:30:00Z,27.3400,-84.2750,0.0,30.6,2 
Scripps,ioos:station:wmo:42099:1,2017-07-11T10:30:00Z,27.3400,-84.2750,0.0,30.55,2 
Scripps,ioos:station:wmo:42099:1,2017-07-11T11:30:00Z,27.3400,-84.2750,0.0,30.55,2 
Scripps,ioos:station:wmo:42099:1,2017-07-11T15:00:00Z,27.3400,-84.2750,0.0,30.4,2 
Scripps,ioos:station:wmo:42099:1,2017-07-11T16:30:00Z,27.3400,-84.2750,0.0,30.45,2 
Scripps,ioos:station:wmo:42099:1,2017-07-11T17:30:00Z,27.3400,-84.2750,0.0,31.1,2 
Scripps,ioos:station:wmo:42099:1,2017-07-11T19:30:00Z,27.3400,-84.2750,0.0,30.45,2 
Scripps,ioos:station:wmo:42099:1,2017-07-11T22:00:00Z,27.3400,-84.2750,0.0,30.5,2 
Scripps,ioos:station:wmo:42099:1,2017-07-11T23:00:00Z,27.3400,-84.2750,0.0,30.5,2 
Scripps,ioos:station:wmo:42099:1,2017-07-12T00:30:00Z,27.3400,-84.2750,0.0,30.4,2 
Scripps,ioos:station:wmo:42099:1,2017-07-12T01:30:00Z,27.3400,-84.2750,0.0,30.45,2 
Scripps,ioos:station:wmo:42099:1,2017-07-12T09:00:00Z,27.3400,-84.2750,0.0,30.4,2 
Scripps,ioos:station:wmo:42099:1,2017-07-12T10:30:00Z,27.3400,-84.2750,0.0,30.25,2 
Scripps,ioos:station:wmo:42099:1,2017-07-12T11:00:00Z,27.3400,-84.2750,0.0,30.25,2 
Scripps,ioos:station:wmo:42099:1,2017-07-12T12:00:00Z,27.3400,-84.2750,0.0,30.2,2 
Scripps,ioos:station:wmo:42099:1,2017-07-12T13:00:00Z,27.3400,-84.2750,0.0,30.2,2 
Scripps,ioos:station:wmo:42099:1,2017-07-12T15:00:00Z,27.3400,-84.2750,0.0,30.3,2 
Scripps,ioos:station:wmo:42099:1,2017-07-12T15:30:00Z,27.3400,-84.2750,0.0,30.35,2 
Scripps,ioos:station:wmo:42099:1,2017-07-12T17:30:00Z,27.3400,-84.2750,0.0,30.6,2 
Scripps,ioos:station:wmo:42099:1,2017-07-12T21:30:00Z,27.3400,-84.2750,0.0,30.75,2 
Scripps,ioos:station:wmo:42099:1,2017-07-13T00:30:00Z,27.3400,-84.2750,0.0,30.75,2 
Scripps,ioos:station:wmo:42099:1,2017-07-13T01:30:00Z,27.3400,-84.2750,0.0,30.65,2 
Scripps,ioos:station:wmo:42099:1,2017-07-13T02:00:00Z,27.3400,-84.2750,0.0,30.65,2 
Scripps,ioos:station:wmo:42099:1,2017-07-13T08:30:00Z,27.3400,-84.2750,0.0,30.4,2 
Scripps,ioos:station:wmo:42099:1,2017-07-13T09:30:00Z,27.3400,-84.2750,0.0,30.25,2 
Scripps,ioos:station:wmo:42099:1,2017-07-13T10:30:00Z,27.3400,-84.2750,0.0,30.15,2 
Scripps,ioos:station:wmo:42099:1,2017-07-13T11:30:00Z,27.3400,-84.2750,0.0,30.15,2 
Scripps,ioos:station:wmo:42099:1,2017-07-13T22:30:00Z,27.3400,-84.2750,0.0,30.65,2 
Scripps,ioos:station:wmo:42099:1,2017-07-13T23:00:00Z,27.3400,-84.2750,0.0,30.65,2 
Scripps,ioos:station:wmo:42099:1,2017-07-14T01:30:00Z,27.3400,-84.2750,0.0,30.5,2 
Scripps,ioos:station:wmo:42099:1,2017-07-14T03:30:00Z,27.3400,-84.2750,0.0,30.5,2 
Scripps,ioos:station:wmo:42099:1,2017-07-14T04:30:00Z,27.3400,-84.2750,0.0,30.5,2 
Scripps,ioos:station:wmo:42099:1,2017-07-14T05:30:00Z,27.3400,-84.2750,0.0,30.5,2 
Scripps,ioos:station:wmo:42099:1,2017-07-14T06:30:00Z,27.3400,-84.2750,0.0,30.45,2 
Scripps,ioos:station:wmo:42099:1,2017-07-14T07:00:00Z,27.3400,-84.2750,0.0,30.45,2 
Scripps,ioos:station:wmo:42099:1,2017-07-14T11:30:00Z,27.3400,-84.2750,0.0,30.2,2 
Scripps,ioos:station:wmo:42099:1,2017-07-14T16:30:00Z,27.3400,-84.2750,0.0,30.4,2 
Scripps,ioos:station:wmo:42099:1,2017-07-14T17:30:00Z,27.3400,-84.2750,0.0,30.4,2 
Scripps,ioos:station:wmo:42099:1,2017-07-14T18:00:00Z,27.3400,-84.2750,0.0,30.4,2 
Scripps,ioos:station:wmo:42099:1,2017-07-14T19:30:00Z,27.3400,-84.2750,0.0,30.35,2 
Scripps,ioos:station:wmo:42099:1,2017-07-14T21:00:00Z,27.3400,-84.2750,0.0,30.35,2 
Scripps,ioos:station:wmo:42099:1,2017-07-14T23:30:00Z,27.3400,-84.2750,0.0,30.25,2 
Scripps,ioos:station:wmo:42099:1,2017-07-15T01:30:00Z,27.3400,-84.2750,0.0,30.15,2 
Scripps,ioos:station:wmo:42099:1,2017-07-15T03:00:00Z,27.3400,-84.2750,0.0,30.15,2 
Scripps,ioos:station:wmo:42099:1,2017-07-15T07:00:00Z,27.3400,-84.2750,0.0,30.15,2 
Scripps,ioos:station:wmo:42099:1,2017-07-15T09:30:00Z,27.3400,-84.2750,0.0,30.15,2 
Scripps,ioos:station:wmo:42099:1,2017-07-15T10:30:00Z,27.3400,-84.2750,0.0,30.2,2 
Scripps,ioos:station:wmo:42099:1,2017-07-15T16:30:00Z,27.3400,-84.2750,0.0,30.1,2 
Scripps,ioos:station:wmo:42099:1,2017-07-15T20:00:00Z,27.3400,-84.2750,0.0,30.25,2 
Scripps,ioos:station:wmo:42099:1,2017-07-15T21:00:00Z,27.3400,-84.2750,0.0,30.2,2 
Scripps,ioos:station:wmo:42099:1,2017-07-16T00:30:00Z,27.3400,-84.2750,0.0,30.2,2 
Scripps,ioos:station:wmo:42099:1,2017-07-16T01:30:00Z,27.3400,-84.2750,0.0,30.1,2 
Scripps,ioos:station:wmo:42099:1,2017-07-16T02:00:00Z,27.3400,-84.2750,0.0,30.05,2 
Scripps,ioos:station:wmo:42099:1,2017-07-16T03:30:00Z,27.3400,-84.2750,0.0,30.0,2 
Scripps,ioos:station:wmo:42099:1,2017-07-16T04:30:00Z,27.3400,-84.2750,0.0,29.95,2 
Scripps,ioos:station:wmo:42099:1,2017-07-16T08:30:00Z,27.3400,-84.2750,0.0,29.55,2 
Scripps,ioos:station:wmo:42099:1,2017-07-16T09:30:00Z,27.3400,-84.2750,0.0,29.5,2 
Scripps,ioos:station:wmo:42099:1,2017-07-16T10:00:00Z,27.3400,-84.2750,0.0,29.6,2 
Scripps,ioos:station:wmo:42099:1,2017-07-16T17:00:00Z,27.3400,-84.2750,0.0,30.95,2 
Scripps,ioos:station:wmo:42099:1,2017-07-16T22:00:00Z,27.3400,-84.2750,0.0,31.65,2 
Scripps,ioos:station:wmo:42099:1,2017-07-16T23:00:00Z,27.3400,-84.2750,0.0,31.55,2 
Scripps,ioos:station:wmo:42099:1,2017-07-17T01:30:00Z,27.3400,-84.2750,0.0,30.75,2 
Scripps,ioos:station:wmo:42099:1,2017-07-17T02:00:00Z,27.3400,-84.2750,0.0,30.65,2 
Scripps,ioos:station:wmo:42099:1,2017-07-17T03:30:00Z,27.3400,-84.2750,0.0,30.35,2 
Scripps,ioos:station:wmo:42099:1,2017-07-17T04:30:00Z,27.3400,-84.2750,0.0,30.25,2 
Scripps,ioos:station:wmo:42099:1,2017-07-17T05:30:00Z,27.3400,-84.2750,0.0,30.1,2 
Scripps,ioos:station:wmo:42099:1,2017-07-17T06:30:00Z,27.3400,-84.2750,0.0,30.3,2 
Scripps,ioos:station:wmo:42099:1,2017-07-17T07:30:00Z,27.3400,-84.2750,0.0,30.4,2 
Scripps,ioos:station:wmo:42099:1,2017-07-17T08:30:00Z,27.3400,-84.2750,0.0,30.6,2 
Scripps,ioos:station:wmo:42099:1,2017-07-17T09:30:00Z,27.3400,-84.2750,0.0,30.85,2 
Scripps,ioos:station:wmo:42099:1,2017-07-17T10:30:00Z,27.3400,-84.2750,0.0,30.75,2 
Scripps,ioos:station:wmo:42099:1,2017-07-17T14:00:00Z,27.3400,-84.2750,0.0,30.65,2 
Scripps,ioos:station:wmo:42099:1,2017-07-17T18:00:00Z,27.3400,-84.2750,0.0,32.55,2 
Scripps,ioos:station:wmo:42099:1,2017-07-17T20:30:00Z,27.3400,-84.2750,0.0,33.0,2 
Scripps,ioos:station:wmo:42099:1,2017-07-17T23:30:00Z,27.3400,-84.2750,0.0,31.55,2 
Scripps,ioos:station:wmo:42099:1,2017-07-18T00:30:00Z,27.3400,-84.2750,0.0,31.1,2 
Scripps,ioos:station:wmo:42099:1,2017-07-18T02:00:00Z,27.3400,-84.2750,0.0,30.95,2 
Scripps,ioos:station:wmo:42099:1,2017-07-18T03:30:00Z,27.3400,-84.2750,0.0,30.85,2 
Scripps,ioos:station:wmo:42099:1,2017-07-18T04:30:00Z,27.3400,-84.2750,0.0,30.9,2 
Scripps,ioos:station:wmo:42099:1,2017-07-18T05:30:00Z,27.3400,-84.2750,0.0,31.05,2 
Scripps,ioos:station:wmo:42099:1,2017-07-18T06:00:00Z,27.3400,-84.2750,0.0,31.1,2 
Scripps,ioos:station:wmo:42099:1,2017-07-18T07:00:00Z,27.3400,-84.2750,0.0,31.1,2 
Scripps,ioos:station:wmo:42099:1,2017-07-18T09:30:00Z,27.3400,-84.2750,0.0,30.95,2 
Scripps,ioos:station:wmo:42099:1,2017-07-18T10:00:00Z,27.3400,-84.2750,0.0,30.95,2 
Scripps,ioos:station:wmo:42099:1,2017-07-18T13:30:00Z,27.3400,-84.2750,0.0,30.55,2 
Scripps,ioos:station:wmo:42099:1,2017-07-18T17:30:00Z,27.3400,-84.2750,0.0,30.75,2 
Scripps,ioos:station:wmo:42099:1,2017-07-18T19:00:00Z,27.3400,-84.2750,0.0,31.0,2 
Scripps,ioos:station:wmo:42099:1,2017-07-18T23:30:00Z,27.3400,-84.2750,0.0,30.75,2 
Scripps,ioos:station:wmo:42099:1,2017-07-19T00:30:00Z,27.3400,-84.2750,0.0,30.7,2 
Scripps,ioos:station:wmo:42099:1,2017-07-19T01:30:00Z,27.3400,-84.2750,0.0,30.65,2 
Scripps,ioos:station:wmo:42099:1,2017-07-19T06:30:00Z,27.3400,-84.2750,0.0,30.75,2 
Scripps,ioos:station:wmo:42099:1,2017-07-19T07:00:00Z,27.3400,-84.2750,0.0,30.75,2 
Scripps,ioos:station:wmo:42099:1,2017-07-19T08:00:00Z,27.3400,-84.2750,0.0,30.75,2 
Scripps,ioos:station:wmo:42099:1,2017-07-19T09:30:00Z,27.3400,-84.2750,0.0,30.75,2 
Scripps,ioos:station:wmo:42099:1,2017-07-19T10:30:00Z,27.3400,-84.2750,0.0,30.65,2 
Scripps,ioos:station:wmo:42099:1,2017-07-19T11:00:00Z,27.3400,-84.2750,0.0,30.65,2 
Scripps,ioos:station:wmo:42099:1,2017-07-19T12:30:00Z,27.3400,-84.2750,0.0,30.6,2 